Weather History for KEKQ - May, 2013

Change the Weather History Date:

Tuesday, May 7, 2013

  Actual Average Record
Temperature  
Mean Temperature 56 °F -  
Max Temperature 68 °F 74 °F 86 °F (1969)
Min Temperature 44 °F 50 °F 33 °F (1970)
Degree Days  
Heating Degree Days 9    
Growing Degree Days 6 (Base 50)    
Moisture  
Dew Point 51 °F    
Average Humidity 92    
Maximum Humidity 100    
Minimum Humidity 61    
Precipitation  
Precipitation 0.01 in - - ()
Sea Level Pressure  
Sea Level Pressure 29.98 in    
Wind  
Wind Speed 3 mph (WSW)    
Max Wind Speed 7 mph    
Max Gust Speed -    
Visibility 5 miles    
Events Fog , Rain    
Averages and records for this station are not official NWS values.
T = Trace of Precipitation, MM = Missing Value Source: NWS Daily Summary

Daily Weather History Graph

Daily Weather History Graph

Search for Another Location

Airport or City:

Trip Planner

Search our weather history database for the weather conditions in past years. The results will help you decide how hot, cold, wet, or windy it might be!

Date:

Astronomy

May. 07, 2013 Rise Set
Actual Time 5:38 AM CDT 7:33 PM CDT
Civil Twilight 5:10 AM CDT 8:02 PM CDT
Nautical Twilight 4:36 AM CDT 8:36 PM CDT
Astronomical Twilight 3:59 AM CDT 9:13 PM CDT
Moon 4:09 AM CDT (5/7) 5:35 PM CDT (5/7)
Length of Visible Light 14h 51m
Length of Day
13h 54m
Waning Crescent, 5% of the Moon is Illuminated
May 7
Waning Crescent
May 9
New
May 17
First Quarter
May 24
Full
May 31
Last Quarter

Hourly Weather History & Observations

Time (CDT) Temp. Windchill Dew Point Humidity Pressure Visibility Wind Dir Wind Speed Gust Speed Precip Events Conditions
1:56 AM 47.8 °F - 47.8 °F 100% 29.93 in 0.2 mi West 3.5 mph - N/A Fog Fog
2:56 AM 45.0 °F - 45.0 °F 100% 29.94 in 0.2 mi Calm Calm - N/A Fog Fog
3:03 AM 44.6 °F - 44.6 °F 100% 29.93 in 0.8 mi Calm Calm - N/A   Mist
3:05 AM 44.6 °F - 44.6 °F 100% 29.93 in 1.2 mi Calm Calm - N/A   Mostly Cloudy
3:08 AM 44.6 °F - 44.6 °F 100% 29.93 in 2.0 mi Calm Calm - N/A   Scattered Clouds
3:15 AM 44.6 °F 42.2 °F 44.6 °F 100% 29.93 in 6.0 mi West 4.6 mph - N/A   Scattered Clouds
3:19 AM 46.4 °F 43.5 °F 46.4 °F 100% 29.93 in 1.2 mi West 5.8 mph - N/A   Mostly Cloudy
3:21 AM 46.4 °F 43.5 °F 46.4 °F 100% 29.93 in 0.5 mi West 5.8 mph - N/A Fog Fog
3:28 AM 46.4 °F 43.5 °F 46.4 °F 100% 29.94 in 0.2 mi West 5.8 mph - N/A Fog Fog
3:56 AM 46.9 °F - 46.9 °F 100% 29.96 in 0.2 mi South 3.5 mph - N/A Fog Fog
4:56 AM 47.8 °F - 47.8 °F 100% 29.96 in 0.2 mi SSW 5.8 mph - N/A Fog Fog
5:03 AM 48.2 °F - 48.2 °F 100% 29.95 in 0.2 mi SSW 5.8 mph - N/A Fog Fog
5:56 AM 46.9 °F - 46.9 °F 100% 29.99 in 0.2 mi SSW 4.6 mph - N/A Fog Fog
6:56 AM 46.9 °F - 46.9 °F 100% 29.99 in 0.2 mi SW 3.5 mph - N/A Fog Fog
7:06 AM 46.4 °F 44.3 °F 46.4 °F 100% 29.98 in 0.8 mi SW 4.6 mph - N/A   Overcast
7:09 AM 46.4 °F - 46.4 °F 100% 29.98 in 1.2 mi Calm Calm - N/A   Overcast
7:17 AM 48.2 °F - 48.2 °F 100% 29.99 in 1.0 mi Calm Calm - N/A   Overcast
7:24 AM 48.2 °F - 48.2 °F 100% 29.99 in 1.5 mi Calm Calm - N/A   Overcast
7:29 AM 48.2 °F - 48.2 °F 100% 29.99 in 3.0 mi Calm Calm - N/A   Overcast
7:43 AM 48.2 °F - 48.2 °F 100% 29.99 in 1.8 mi Calm Calm - N/A   Overcast
7:46 AM 48.2 °F - 48.2 °F 100% 29.99 in 1.0 mi Calm Calm - N/A   Overcast
7:56 AM 48.9 °F - 48.9 °F 100% 30.01 in 0.5 mi West 4.6 mph - N/A Fog Fog
8:07 AM 48.2 °F - 48.2 °F 100% 30.00 in 0.2 mi Calm Calm - N/A Fog Fog
8:14 AM 48.2 °F - 48.2 °F 100% 30.00 in 0.5 mi Calm Calm - N/A Fog Fog
8:17 AM 48.2 °F - 48.2 °F 100% 30.00 in 1.0 mi Calm Calm - N/A   Overcast
8:27 AM 48.2 °F - 48.2 °F 100% 30.00 in 1.5 mi South 4.6 mph - N/A   Overcast
8:37 AM 50.0 °F - 50.0 °F 100% 30.00 in 2.5 mi SW 3.5 mph - N/A   Overcast
8:56 AM 50.9 °F - 50.9 °F 100% 30.01 in 5.0 mi West 4.6 mph - N/A   Overcast
9:17 AM 51.8 °F - 51.8 °F 100% 30.00 in 9.0 mi Calm Calm - N/A   Overcast
9:56 AM 54.0 °F - 54.0 °F 100% 30.02 in 10.0 mi Calm Calm - N/A   Overcast
10:21 AM 55.4 °F - 53.6 °F 94% 30.01 in 10.0 mi East 5.8 mph - N/A   Overcast
10:56 AM 57.9 °F - 54.9 °F 90% 30.03 in 10.0 mi Variable 5.8 mph - N/A   Overcast
11:31 AM 60.8 °F - 55.4 °F 82% 30.01 in 10.0 mi NNE 6.9 mph - N/A   Mostly Cloudy
11:56 AM 61.0 °F - 54.0 °F 78% 30.02 in 10.0 mi ENE 4.6 mph - N/A   Mostly Cloudy
12:07 PM 60.8 °F - 55.4 °F 82% 30.01 in 10.0 mi Variable 5.8 mph - N/A   Mostly Cloudy
12:56 PM 61.9 °F - 54.0 °F 75% 30.01 in 10.0 mi Variable 4.6 mph - N/A   Mostly Cloudy
1:18 PM 64.4 °F - 55.4 °F 73% 29.99 in 10.0 mi ENE 4.6 mph - N/A   Scattered Clouds
1:29 PM 64.4 °F - 53.6 °F 68% 29.99 in 10.0 mi Variable 5.8 mph - N/A   Mostly Cloudy
2:04 PM 64.4 °F - 53.6 °F 68% 29.98 in 10.0 mi Calm Calm - N/A   Scattered Clouds
2:56 PM 68.0 °F - 54.0 °F 61% 29.98 in 10.0 mi NW 6.9 mph - N/A   Scattered Clouds
3:56 PM 66.9 °F - 54.0 °F 63% 29.96 in 10.0 mi West 6.9 mph - N/A   Mostly Cloudy
4:56 PM 68.0 °F - 54.0 °F 61% 29.97 in 10.0 mi Calm Calm - 0.00 in   Partly Cloudy
5:56 PM 68.0 °F - 54.0 °F 61% 29.96 in 10.0 mi NW 4.6 mph - N/A   Partly Cloudy
6:56 PM 63.9 °F - 55.9 °F 75% 29.97 in 10.0 mi Calm Calm - N/A   Clear
7:56 PM 59.9 °F - 57.9 °F 93% 29.99 in 10.0 mi Calm Calm - N/A   Scattered Clouds
8:56 PM 59.0 °F - 56.8 °F 93% 30.00 in 10.0 mi Calm Calm - N/A   Partly Cloudy
9:56 PM 59.0 °F - 59.0 °F 100% 30.01 in 10.0 mi Calm Calm - 0.00 in   Mostly Cloudy
10:56 PM 57.9 °F - 57.9 °F 100% 30.00 in 10.0 mi Calm Calm - 0.00 in   Partly Cloudy
11:56 PM 57.9 °F - 57.9 °F 100% 30.01 in 3.0 mi SSE 3.5 mph - 0.01 in Rain Light Rain